sat.trackr.live / text

‹ back to catalog

STARLINK-35126

NORAD 65503 · 2025-198M

PAYLOAD ACTIVE UNKNOWN

§ Identity

Operator
Country
US
Launch date
2025-09-05
Launch site
AFETR
Launch vehicle
Mass (kg)
RCS (m²)

Purposes: comms

External: N2YO · Heavens-Above · Gunter

§ Orbital elements

Epoch: 2026-05-24T21:05:40.039296Z

Period
94.11 min
Inclination
53.1581°
Eccentricity
0.0001039
Mean motion
15.30192211 rev/d
Perigee alt
474.5 km
Apogee alt
476.0 km
Semi-major
6,853.4 km
B*
1.4313e-5
RAAN
277.1995°
Arg perigee
95.1382°
Mean anomaly
264.9737°
Rev number
4,028

§ Raw data

STARLINK-351261 65503U 25198M   26144.87893564  .00000065  00000+0  14313-4 0  99972 65503  53.1581 277.1995 0001039  95.1382 264.9737 15.30192211 40282

JSON: /api/v1/satellites/65503 · /tle

For live sub-satellite position, see the globe view (requires WebGL).

§ Visibility from observer

Set your observer location to see the next 7 days of passes ≥ 10°. The values pass through the URL so the page stays shareable.

No JS? Fill the form by hand. The geolocation button needs JavaScript.